SCP
0 0 0 0 0 0 0 0 0 0 0 0 0 0 0 0 0 0 0 0 0 0 0 0 0 0 0 0 0 0 0 0 0 0 0 0 0 0 0 0 0 0 0
0 0 0 0 0 0 0 0 0 0 0 0 0 0 0 0 0 0 0 0 0 0 0 0 0 0 0 0 0 0 0 0 0 0 0 0 0 0 0 0 0 0 0
0 0 0 0 0 0 0 0 0 0 0 0 0 0 0 0 0 0 0 0 0 0 0 0 0 0 0 0 0 0 0 0 0 0 0 0 0 0 0 0 0 0 0
0 0 0 0 0 0 0 0 0 0 0 0 0 0 0 0 0 0 0 0 0 0 0 0 0 0 0 0 0 0 0 0 0 0 0 0 -0 0 0 0 0 0 0
0 0 0 0 0 0 0 0 0 0 0 0 0 0 0 0 0 0 0 0 0 0 0 0 0 0 0 0 0 0 0 0 0 0 0 0 -0 0 0 0 0 0 0
0 0 0 0 0 0 0 0 0 0 0 0 0 0 0 0 0 0 0 0 0 0 0 0 0 0 0 0 0 0 0 0 0 0 0 0 0 0 0 0 0 0 0
0 0 0 0 0 0 0 0 0 0 0 0 0 0 0 0 0 0 0 0 0 0 0 0 0 0 0 0 0 0 0 0 0 0 0 0 0 0 0 0 0 0 0
0 0 0 0 0 0 0 0 0 0 0 0 0 0 0 0 0 0 0 0 0 0 0 0 0 0 0 0 0 0 0 0 0 0 0 0 0 0 0 0 0 0 0
0 0 0 0 0 0 0 0 0 0 0 0 0 0 0 0 0 0 0 0 0 0 0 0 0 0 0 0 0 0 0 0 0 0 0 0 0 0 0 0 0 0 0
0 0 0 0 0 0 0 0 0 0 0 0 0 0 0 0 0 0 0 0 0 0 0 0 0 0 0 0 0 0 0 0 0 0 0 0 0 0 0 0 0 0 0
0 0 0 0 0 0 0 0 0 0 0 0 0 0 0 0 0 0 0 0 0 0 0 0 0 0 0 0 0 0 0 0 0 0 0 0 0 0 0 0 0 0 0
0 0 0 0 0 0 0 0 0 0 0 0 0 0 0 0 0 0 0 0 0 0 0 0 0 0 0 0 0 0 0 0 0 0 -0 0 0 0 0 0 0 0 0
0 0 0 0 0 0 0 0 0 0 0 0 0 0 0 0 0 0 0 0 0 0 0 0 0 0 0 0 0 0 0 0 0 0 -0 0 0 0 0 0 0 0 0
0 0 0 0 0 0 0 0 0 0 0 0 0 0 0 0 0 0 0 0 0 0 0 0 0 0 0 0 0 0 0 0 0 0 -0 0 0 0 0 0 0 0 0
0 0 0 0 0 0 0 0 0 0 0 0 0 0 0 0 0 0 0 0 0 0 0 0 0 0 0 0 0 0 0 0 0 0 0 0 0 0 0 0 0 0 0
0 0 0 0 0 0 0 0 0 0 0 0 0 0 0 0 0 0 0 0 0 0 0 0 0 0 0 0 0 0 0 0 0 0 0 0 0 0 0 0 0 0 0
0 0 0 0 0 0 0 0 0 0 0 0 0 0 0 0 0 0 0 0 0 0 0 0 0 0 0 0 0 0 0 0 0 0 0 0 0 0 0 0 0 0 0
0 0 0 0 0 0 0 0 0 0 0 0 0 0 0 0 0 0 0 0 0 0 0 0 0 0 0 0 0 0 0 0 0 0 0 0 0 0 0 0 0 0 0
0 0 0 0 0 0 0 0 0 0 0 0 0 0 0 0 0 0 0 0 0 0 0 0 0 0 0 0 0 0 0 0 0 0 0 0 0 0 0 0 0 0 0
0 0 0 0 0 0 0 0 0 0 0 0 0 0 0 0 0 0 0 0 0 0 0 0 0 0 0 0 0 0 0 0 0 0 0 0 0 0 0 0 0 0 0
0 0 0 0 0 0 0 0 0 0 0 0 0 0 0 0 0 0 0 0 0 0 0 0 0 0 0 0 0 0 0 0 0 0 0 0 0 0 0 0 0 0 0
0 0 0 0 0 0 0 0 0 0 0 0 0 0 0 0 0 0 0 0 0 0 0 0 0 0 0 0 0 0 0 0 0 0 0 0 0 0 0 0 0 0 0
0 0 0 0 0 0 0 0 0 0 0 0 0 0 0 0 0 0 0 0 0 0 0 0 0 0 0 0 0 0 0 0 0 0 0 0 0 0 0 0 0 0 0
0 0 0 0 0 0 0 0 0 0 0 0 0 0 0 0 0 0 0 0 0 0 0 0 0 0 0 0 0 0 0 0 0 0 0 0 0 0 0 0 0 0 0
0 0 0 0 0 0 0 0 0 0 0 0 0 0 0 0 0 0 0 0 0 0 0 0 0 0 0 0 0 0 0 0 0 0 0 0 0 0 0 0 0 0 0
0 0 0 0 0 0 0 0 0 0 0 0 0 0 0 0 0 0 0 0 0 0 0 0 0 0 0 0 0 0 0 0 0 0 0 0 0 0 0 0 0 0 0
Wind_Speed
3 3 2 6 7 8 9 10 11 12 13 15 15 16 17 18 19 20 20 21 21 22 23 23 24 25 25 26 26 26 26 26 27 27 27 28 28 27 27 27 25 15 25
5 2 5 7 8 8 9 9 10 11 13 14 15 16 16 17 18 19 19 20 21 22 22 23 24 24 25 25 26 26 26 26 26 26 26 24 26 27 27 27 26 19 26
4 3 3 8 8 8 8 9 9 10 12 13 14 15 16 16 17 18 18 19 20 21 22 22 23 24 24 25 25 25 25 25 25 25 23 13 16 24 26 26 26 26 26
5 3 1 9 8 8 8 8 9 9 11 12 13 14 14 15 16 17 17 18 19 20 20 21 22 23 24 24 25 25 26 25 25 23 13 12 12 21 25 25 26 26 26
5 3 2 10 9 8 7 7 8 9 10 11 12 13 13 14 15 15 16 17 17 18 19 20 21 22 23 24 25 25 26 25 25 18 11 11 10 20 25 25 25 26 26
5 2 2 10 9 8 7 7 7 8 9 10 11 12 12 13 14 14 15 15 16 17 18 19 20 21 22 23 24 25 26 26 21 12 11 11 11 21 26 25 25 26 26
5 1 2 9 9 8 7 6 7 7 8 9 11 11 11 12 12 13 14 14 15 16 17 19 20 21 22 23 23 24 24 25 17 12 11 11 14 25 26 26 26 25 26
6 3 2 8 9 8 7 6 6 7 8 9 10 11 11 11 12 12 13 14 15 16 17 18 20 21 21 22 22 22 23 22 16 13 11 11 20 27 27 27 27 27 26
5 4 3 4 4 5 5 6 6 7 7 8 9 10 10 11 11 12 13 13 14 16 17 18 19 20 20 21 21 21 21 21 11 8 12 10 22 27 27 27 27 28 28
4 4 4 4 4 3 2 5 7 7 7 7 9 10 10 11 11 12 11 13 14 15 16 18 18 19 19 20 20 20 20 16 7 7 6 12 25 26 27 27 28 28 28
6 4 5 5 4 4 3 4 5 6 7 7 6 9 9 4 3 6 9 13 14 15 16 17 17 18 17 18 19 19 15 6 6 6 6 19 25 25 26 27 27 28 29
9 7 5 6 6 5 4 4 3 3 4 4 4 5 4 3 3 5 10 13 14 15 15 16 17 15 12 6 11 14 5 7 6 6 9 23 24 25 26 26 27 28 29
9 8 8 7 6 6 4 4 3 2 3 4 5 5 4 3 3 3 2 5 6 9 6 9 8 5 5 5 5 5 6 5 4 5 9 21 23 24 25 26 27 28 29
9 10 9 8 7 6 5 4 4 3 3 3 4 6 4 3 2 2 2 2 3 2 3 4 3 5 5 5 5 6 6 4 4 4 7 19 21 22 24 25 27 28 29
13 13 10 9 9 7 6 5 5 5 5 5 4 5 5 4 3 2 1 2 2 2 2 3 3 4 5 5 5 6 6 6 6 6 6 16 20 21 23 25 27 28 29
16 15 11 11 10 8 7 6 5 5 5 5 5 6 6 4 4 3 2 1 0 0 1 1 3 3 4 4 6 6 7 7 6 7 5 9 17 20 22 24 26 28 30
15 14 14 13 11 10 9 8 6 5 5 5 5 6 6 5 5 4 3 2 2 2 2 2 3 3 4 5 6 7 7 6 7 7 7 5 7 15 20 24 26 28 30
12 13 14 13 12 11 9 8 5 5 6 5 5 5 7 7 6 5 4 3 3 3 2 3 3 3 4 4 5 6 6 6 7 7 6 5 5 6 12 22 25 27 30
15 14 15 14 14 13 10 7 6 5 6 5 5 5 6 7 7 5 4 4 4 3 3 4 3 3 4 5 6 6 6 6 7 7 6 6 6 6 6 14 23 27 29
13 14 15 15 13 11 7 5 4 4 5 5 5 6 7 7 8 6 4 5 4 3 4 4 4 4 4 5 7 7 7 8 6 6 6 5 5 7 7 9 10 15 26
13 15 16 16 13 11 7 6 5 5 5 5 6 7 8 8 8 7 5 5 5 5 5 5 3 4 4 3 3 5 7 7 7 5 4 5 6 7 7 8 8 8 11
17 17 17 18 17 16 11 7 4 4 4 5 5 7 9 9 9 8 7 6 5 5 5 5 4 3 3 2 2 4 5 4 3 6 5 6 7 5 7 11 9 11 10
19 21 19 20 18 17 13 7 4 3 2 4 6 7 9 10 9 8 8 7 6 6 5 6 5 5 4 3 3 2 3 5 7 5 6 6 6 6 7 7 10 10 13
21 17 18 18 18 17 16 14 13 11 10 10 7 7 8 9 9 9 8 8 7 6 6 6 6 5 5 4 3 4 5 5 5 8 5 4 6 8 8 10 9 11 13
16 15 16 15 17 17 18 19 17 13 9 5 5 8 8 8 8 9 8 7 7 6 7 7 6 6 5 5 4 4 5 5 7 7 13 11 7 6 7 8 8 9 12
11 12 13 16 17 17 18 18 19 17 12 9 9 9 8 6 7 8 9 8 8 7 7 8 7 7 6 7 6 5 5 5 6 7 10 14 14 9 7 6 8 9 10
Wind_Direction
200 249 171 105 89 75 65 57 50 45 41 36 34 34 34 33 32 30 29 29 29 29 28 29 29 28 28 27 26 25 24 27 28 22 16 9 3 2 4 4 1 354 356
167 214 132 111 95 82 71 62 54 49 44 39 36 35 34 34 33 30 30 29 29 28 28 28 27 27 28 26 24 22 23 28 26 21 15 8 358 356 360 0 358 353 354
139 97 98 118 105 92 81 69 60 54 48 42 39 37 34 35 34 31 31 30 29 28 27 27 26 26 26 24 23 21 23 29 24 20 14 5 352 352 356 356 355 353 351
138 111 109 129 116 103 91 77 65 59 53 47 44 40 37 37 36 31 32 30 29 28 27 27 26 25 24 22 21 21 22 28 24 19 12 0 351 347 354 354 352 349 347
138 122 181 134 124 112 101 87 72 65 59 53 49 43 39 39 38 31 32 30 29 28 27 27 26 25 23 20 19 19 20 25 24 17 6 356 348 343 352 352 350 347 343
145 121 209 145 136 124 112 98 81 70 65 59 56 48 41 41 40 32 32 30 28 28 26 27 26 24 23 20 19 19 19 21 23 8 1 354 341 340 349 348 347 343 340
153 135 251 157 147 137 124 110 94 80 72 66 64 54 44 42 40 33 32 31 29 28 26 26 25 24 23 20 19 19 19 19 18 2 355 352 332 344 345 345 343 340 337
149 120 21 163 150 146 136 125 109 93 84 76 72 62 50 43 39 34 31 32 30 28 27 26 25 24 23 19 18 18 18 21 12 357 349 345 335 344 343 342 341 337 334
148 129 89 65 96 134 136 137 122 108 97 88 82 73 58 48 39 36 29 32 32 30 29 27 25 23 22 18 15 16 17 15 11 353 349 334 336 341 341 340 337 334 331
159 151 139 119 109 92 67 141 132 121 110 99 92 84 70 56 40 33 27 30 33 32 29 28 25 22 21 15 11 12 14 12 357 348 342 324 337 338 338 336 334 331 328
185 182 167 159 153 147 139 125 113 116 114 99 86 92 86 68 49 21 21 32 33 33 29 27 24 21 21 12 6 8 11 0 350 344 333 328 335 336 334 334 332 329 325
194 194 188 178 172 166 150 115 112 105 108 116 112 106 105 86 62 54 30 34 34 35 29 26 24 22 18 6 359 3 357 348 347 337 330 329 331 332 331 331 330 327 324
191 191 188 186 178 168 153 150 148 139 139 143 144 140 128 105 74 64 46 33 30 37 33 24 19 14 4 355 347 338 334 335 327 320 318 324 328 328 328 328 327 325 322
188 198 190 185 179 179 169 165 165 164 163 166 165 158 147 137 125 103 75 50 43 36 28 20 10 356 347 336 324 314 312 309 301 298 300 321 324 326 325 326 325 323 322
197 199 193 185 185 180 175 180 176 179 177 173 170 170 162 153 147 132 102 66 44 35 25 2 350 335 323 312 301 301 297 292 287 283 296 314 323 323 324 323 322 321 319
202 200 192 190 189 182 183 187 182 182 177 174 177 179 171 161 156 150 139 120 86 1 319 305 293 290 286 284 283 283 281 278 275 277 279 301 315 322 322 321 320 318 315
201 197 193 194 190 189 191 192 187 185 178 181 182 180 176 169 165 161 163 185 211 220 242 262 276 263 264 268 273 276 272 264 270 275 280 274 291 312 318 320 317 314 313
196 195 196 197 191 195 193 191 185 185 184 187 181 179 182 178 172 168 178 202 208 206 220 243 250 255 261 265 267 269 269 268 271 270 269 273 277 291 308 314 314 314 313
197 194 195 198 192 195 192 188 187 185 191 188 181 182 187 184 179 175 188 204 203 205 217 242 238 230 255 266 266 261 255 260 266 273 272 273 274 284 287 306 313 314 310
197 196 198 200 195 186 179 174 182 195 201 192 189 190 187 188 183 181 192 206 201 206 220 227 245 245 241 255 275 277 263 259 256 256 262 272 275 282 288 293 298 303 305
196 198 200 199 193 180 175 180 183 202 199 197 199 195 191 189 186 185 195 198 201 209 219 219 232 260 260 247 269 277 265 252 245 247 249 263 271 274 279 288 289 289 296
202 202 202 203 197 194 193 178 172 171 186 195 195 195 195 192 190 193 194 199 203 209 218 220 212 236 258 260 271 305 313 294 250 248 246 260 267 268 282 291 288 289 292
206 205 204 204 200 197 186 164 144 131 139 173 195 200 198 193 192 193 191 196 202 203 215 218 209 215 242 253 207 230 293 297 308 258 233 251 257 264 273 279 282 289 297
212 205 205 201 200 195 185 188 186 191 198 197 189 188 188 190 191 193 195 196 203 206 214 221 216 207 217 247 234 218 219 236 289 303 280 248 250 266 266 281 287 289 290
208 201 202 200 201 195 194 197 199 206 202 170 170 181 188 192 194 195 196 197 204 210 214 218 220 216 213 227 229 227 237 241 234 264 291 296 280 253 258 261 271 281 287
199 198 196 199 204 198 198 202 205 206 190 176 184 188 192 193 197 199 201 200 205 210 215 218 219 222 224 229 235 230 230 238 243 246 272 289 292 284 260 255 265 273 278